Date,Time,Temp
8/21/2013,16:53,15.855
8/21/2013,17:08,15.855
8/21/2013,17:23,15.76
8/21/2013,17:38,15.664
8/21/2013,17:53,15.378
8/21/2013,18:08,15.473
8/21/2013,18:23,15.569
8/21/2013,18:38,15.378
8/21/2013,18:53,15.282
8/21/2013,19:08,15.282
8/21/2013,19:23,15.187
8/21/2013,19:38,15.187
8/21/2013,19:53,15.187
8/21/2013,20:08,15.187
8/21/2013,20:23,15.282
8/21/2013,20:38,15.378
8/21/2013,20:53,15.569
8/21/2013,21:08,15.951
8/21/2013,21:23,16.713
8/21/2013,21:38,16.713
8/21/2013,21:53,16.618
8/21/2013,22:08,16.713
8/21/2013,22:23,16.903
8/21/2013,22:38,16.713
8/21/2013,22:53,16.618
8/21/2013,23:08,16.523
8/21/2013,23:23,16.427
8/21/2013,23:38,16.332
8/21/2013,23:53,16.046
8/22/2013,0:08,15.855
8/22/2013,0:23,15.664
8/22/2013,0:38,15.473
8/22/2013,0:53,15.282
8/22/2013,1:08,14.996
8/22/2013,1:23,14.804
8/22/2013,1:38,14.709
8/22/2013,1:53,14.613
8/22/2013,2:08,14.517
8/22/2013,2:23,14.325
8/22/2013,2:38,15.76
8/22/2013,2:53,15.187
8/22/2013,3:08,14.325
8/22/2013,3:23,14.325
8/22/2013,3:38,14.421
8/22/2013,3:53,14.325
8/22/2013,4:08,14.421
8/22/2013,4:23,14.325
8/22/2013,4:38,14.134
8/22/2013,4:53,14.134
8/22/2013,5:08,14.134
8/22/2013,5:23,14.134
8/22/2013,5:38,14.23
8/22/2013,5:53,14.134
8/22/2013,6:08,14.134
8/22/2013,6:23,14.134
8/22/2013,6:38,14.134
8/22/2013,6:53,14.134
8/22/2013,7:08,14.134
8/22/2013,7:23,14.134
8/22/2013,7:38,14.134
8/22/2013,7:53,14.325
8/22/2013,8:08,14.517
8/22/2013,8:23,14.613
8/22/2013,8:38,14.613
8/22/2013,8:53,14.804
8/22/2013,9:08,14.9
8/22/2013,9:23,15.091
8/22/2013,9:38,15.378
8/22/2013,9:53,15.76
8/22/2013,10:08,16.237
8/22/2013,10:23,16.999
8/22/2013,10:38,17.855
8/22/2013,10:53,18.426
8/22/2013,11:08,19.472
8/22/2013,11:23,20.805
8/22/2013,11:38,21.473
8/22/2013,11:53,22.238
8/22/2013,12:08,22.717
8/22/2013,12:23,22.812
8/22/2013,12:38,22.525
8/22/2013,12:53,22.621
8/22/2013,13:08,22.717
8/22/2013,13:23,22.812
8/22/2013,13:38,22.717
8/22/2013,13:53,23.196
8/22/2013,14:08,24.255
8/22/2013,14:23,24.835
8/22/2013,14:38,25.513
8/22/2013,14:53,25.902
8/22/2013,15:08,26.39
8/22/2013,15:23,23.966
8/22/2013,15:38,19.758
8/22/2013,15:53,16.332
8/22/2013,16:08,15.951
8/22/2013,16:23,16.237
8/22/2013,16:38,16.046
8/22/2013,16:53,16.332
8/22/2013,17:08,15.569
8/22/2013,17:23,15.378
8/22/2013,17:38,15.378
8/22/2013,17:53,14.996
8/22/2013,18:08,14.996
8/22/2013,18:23,14.996
8/22/2013,18:38,15.091
8/22/2013,18:53,15.091
8/22/2013,19:08,15.091
8/22/2013,19:23,15.187
8/22/2013,19:38,15.187
8/22/2013,19:53,14.996
8/22/2013,20:08,14.996
8/22/2013,20:23,14.996
8/22/2013,20:38,15.187
8/22/2013,20:53,15.187
8/22/2013,21:08,15.282
8/22/2013,21:23,15.664
8/22/2013,21:38,15.951
8/22/2013,21:53,15.76
8/22/2013,22:08,15.76
8/22/2013,22:23,15.76
8/22/2013,22:38,15.76
8/22/2013,22:53,15.76
8/22/2013,23:08,15.855
8/22/2013,23:23,15.951
8/22/2013,23:38,15.951
8/22/2013,23:53,16.046
8/23/2013,0:08,16.046
8/23/2013,0:23,15.951
8/23/2013,0:38,15.951
8/23/2013,0:53,15.855
8/23/2013,1:08,15.855
8/23/2013,1:23,15.76
8/23/2013,1:38,15.76
8/23/2013,1:53,15.664
8/23/2013,2:08,15.664
8/23/2013,2:23,15.569
8/23/2013,2:38,15.569
8/23/2013,2:53,15.473
8/23/2013,3:08,15.473
8/23/2013,3:23,15.664
8/23/2013,3:38,15.569
8/23/2013,3:53,15.378
8/23/2013,4:08,15.282
8/23/2013,4:23,15.187
8/23/2013,4:38,15.378
8/23/2013,4:53,15.378
8/23/2013,5:08,15.378
8/23/2013,5:23,15.473
8/23/2013,5:38,15.664
8/23/2013,5:53,15.664
8/23/2013,6:08,15.569
8/23/2013,6:23,15.569
8/23/2013,6:38,15.664
8/23/2013,6:53,15.664
8/23/2013,7:08,15.664
8/23/2013,7:23,15.76
8/23/2013,7:38,15.76
8/23/2013,7:53,15.664
8/23/2013,8:08,15.569
8/23/2013,8:23,15.569
8/23/2013,8:38,15.569
8/23/2013,8:53,15.569
8/23/2013,9:08,15.569
8/23/2013,9:23,15.569
8/23/2013,9:38,15.664
8/23/2013,9:53,15.664
8/23/2013,10:08,15.664
8/23/2013,10:23,15.664
8/23/2013,10:38,15.76
8/23/2013,10:53,15.76
8/23/2013,11:08,15.951
8/23/2013,11:23,16.046
8/23/2013,11:38,16.618
8/23/2013,11:53,17.284
8/23/2013,12:08,18.14
8/23/2013,12:23,18.806
8/23/2013,12:38,19.472
8/23/2013,12:53,19.567
8/23/2013,13:08,19.567
8/23/2013,13:23,19.662
8/23/2013,13:38,20.234
8/23/2013,13:53,20.615
8/23/2013,14:08,20.71
8/23/2013,14:23,21.091
8/23/2013,14:38,21.569
8/23/2013,14:53,21.855
8/23/2013,15:08,21.951
8/23/2013,15:23,21.76
8/23/2013,15:38,21.855
8/23/2013,15:53,20.234
8/23/2013,16:08,19.662
8/23/2013,16:23,18.236
8/23/2013,16:38,18.236
8/23/2013,16:53,18.426
8/23/2013,17:08,18.331
8/23/2013,17:23,18.14
8/23/2013,17:38,17.855
8/23/2013,17:53,17.76
8/23/2013,18:08,17.76
8/23/2013,18:23,17.76
8/23/2013,18:38,17.76
8/23/2013,18:53,17.665
8/23/2013,19:08,17.665
8/23/2013,19:23,17.665
8/23/2013,19:38,17.665
8/23/2013,19:53,17.57
8/23/2013,20:08,17.665
8/23/2013,20:23,17.665
8/23/2013,20:38,17.665
8/23/2013,20:53,17.57
8/23/2013,21:08,17.57
8/23/2013,21:23,17.57
8/23/2013,21:38,17.57
8/23/2013,21:53,17.665
8/23/2013,22:08,17.95
8/23/2013,22:23,17.95
8/23/2013,22:38,17.95
8/23/2013,22:53,17.95
8/23/2013,23:08,18.045
8/23/2013,23:23,18.045
8/23/2013,23:38,18.14
8/23/2013,23:53,18.14
8/24/2013,0:08,18.14
8/24/2013,0:23,18.045
8/24/2013,0:38,18.14
8/24/2013,0:53,18.045
8/24/2013,1:08,17.95
8/24/2013,1:23,17.95
8/24/2013,1:38,17.855
8/24/2013,1:53,17.76
8/24/2013,2:08,17.665
8/24/2013,2:23,17.665
8/24/2013,2:38,17.475
8/24/2013,2:53,17.475
8/24/2013,3:08,17.475
8/24/2013,3:23,17.379
8/24/2013,3:38,17.379
8/24/2013,3:53,17.379
8/24/2013,4:08,17.284
8/24/2013,4:23,17.379
8/24/2013,4:38,17.855
8/24/2013,4:53,18.14
8/24/2013,5:08,18.236
8/24/2013,5:23,18.236
8/24/2013,5:38,18.331
8/24/2013,5:53,18.236
8/24/2013,6:08,18.236
8/24/2013,6:23,18.236
8/24/2013,6:38,18.236
8/24/2013,6:53,18.331
8/24/2013,7:08,18.331
8/24/2013,7:23,18.331
8/24/2013,7:38,18.331
8/24/2013,7:53,18.331
8/24/2013,8:08,18.331
8/24/2013,8:23,18.331
8/24/2013,8:38,18.331
8/24/2013,8:53,18.426
8/24/2013,9:08,18.426
8/24/2013,9:23,18.426
8/24/2013,9:38,18.426
8/24/2013,9:53,18.426
8/24/2013,10:08,18.426
8/24/2013,10:23,18.521
8/24/2013,10:38,18.616
8/24/2013,10:53,18.426
8/24/2013,11:08,18.521
8/24/2013,11:23,18.711
8/24/2013,11:38,18.711
8/24/2013,11:53,18.806
8/24/2013,12:08,18.901
8/24/2013,12:23,18.996
8/24/2013,12:38,19.567
8/24/2013,12:53,20.615
8/24/2013,13:08,21.473
8/24/2013,13:23,22.717
8/24/2013,13:38,22.908
8/24/2013,13:53,23.581
8/24/2013,14:08,24.062
8/24/2013,14:23,25.222
8/24/2013,14:38,25.513
8/24/2013,14:53,25.222
8/24/2013,15:08,25.61
8/24/2013,15:23,26.195
8/24/2013,15:38,26.585
8/24/2013,15:53,27.075
8/24/2013,16:08,25.61
8/24/2013,16:23,21.091
8/24/2013,16:38,20.234
8/24/2013,16:53,19.282
8/24/2013,17:08,19.187
8/24/2013,17:23,19.282
8/24/2013,17:38,19.377
8/24/2013,17:53,19.282
8/24/2013,18:08,18.996
8/24/2013,18:23,18.996
8/24/2013,18:38,18.806
8/24/2013,18:53,18.711
8/24/2013,19:08,18.616
8/24/2013,19:23,18.616
8/24/2013,19:38,18.616
8/24/2013,19:53,18.616
8/24/2013,20:08,18.521
8/24/2013,20:23,18.521
8/24/2013,20:38,18.426
8/24/2013,20:53,18.426
8/24/2013,21:08,18.426
8/24/2013,21:23,18.426
8/24/2013,21:38,18.426
8/24/2013,21:53,18.521
8/24/2013,22:08,18.521
8/24/2013,22:23,18.521
8/24/2013,22:38,18.711
8/24/2013,22:53,18.806
8/24/2013,23:08,18.806
8/24/2013,23:23,18.901
8/24/2013,23:38,18.901
8/24/2013,23:53,18.901
8/25/2013,0:08,18.806
8/25/2013,0:23,18.806
8/25/2013,0:38,18.711
8/25/2013,0:53,18.616
8/25/2013,1:08,18.521
8/25/2013,1:23,18.331
8/25/2013,1:38,18.14
8/25/2013,1:53,17.95
8/25/2013,2:08,17.665
8/25/2013,2:23,17.57
8/25/2013,2:38,17.475
8/25/2013,2:53,17.379
8/25/2013,3:08,17.189
8/25/2013,3:23,16.999
8/25/2013,3:38,16.713
8/25/2013,3:53,16.523
8/25/2013,4:08,16.427
8/25/2013,4:23,16.332
8/25/2013,4:38,16.141
8/25/2013,4:53,16.046
8/25/2013,5:08,15.951
8/25/2013,5:23,16.237
8/25/2013,5:38,17.475
8/25/2013,5:53,17.475
8/25/2013,6:08,17.665
8/25/2013,6:23,17.665
8/25/2013,6:38,17.665
8/25/2013,6:53,17.665
8/25/2013,7:08,17.665
8/25/2013,7:23,17.665
8/25/2013,7:38,17.665
8/25/2013,7:53,17.76
8/25/2013,8:08,17.855
8/25/2013,8:23,17.855
8/25/2013,8:38,17.95
8/25/2013,8:53,18.045
8/25/2013,9:08,18.14
8/25/2013,9:23,18.14
8/25/2013,9:38,18.331
8/25/2013,9:53,18.426
8/25/2013,10:08,18.521
8/25/2013,10:23,18.616
8/25/2013,10:38,18.711
8/25/2013,10:53,18.806
8/25/2013,11:08,18.426
8/25/2013,11:23,18.616
8/25/2013,11:38,18.806
8/25/2013,11:53,18.901
8/25/2013,12:08,18.996
8/25/2013,12:23,19.187
8/25/2013,12:38,19.472
8/25/2013,12:53,19.662
8/25/2013,13:08,20.424
8/25/2013,13:23,21.187
8/25/2013,13:38,22.142
8/25/2013,13:53,23.1
8/25/2013,14:08,23.484
8/25/2013,14:23,23.773
8/25/2013,14:38,23.869
8/25/2013,14:53,23.581
8/25/2013,15:08,23.292
8/25/2013,15:23,23.196
8/25/2013,15:38,23.004
8/25/2013,15:53,22.717
8/25/2013,16:08,22.621
8/25/2013,16:23,21.569
8/25/2013,16:38,20.805
8/25/2013,16:53,21.473
8/25/2013,17:08,19.853
8/25/2013,17:23,19.377
8/25/2013,17:38,19.187
8/25/2013,17:53,19.187
8/25/2013,18:08,19.187
8/25/2013,18:23,19.282
8/25/2013,18:38,19.187
8/25/2013,18:53,19.092
8/25/2013,19:08,19.092
8/25/2013,19:23,19.092
8/25/2013,19:38,18.996
8/25/2013,19:53,18.901
8/25/2013,20:08,18.806
8/25/2013,20:23,18.711
8/25/2013,20:38,18.806
8/25/2013,20:53,18.711
8/25/2013,21:08,18.711
8/25/2013,21:23,18.616
8/25/2013,21:38,18.711
8/25/2013,21:53,18.616
8/25/2013,22:08,18.616
8/25/2013,22:23,18.616
8/25/2013,22:38,18.616
8/25/2013,22:53,18.616
8/25/2013,23:08,18.711
8/25/2013,23:23,18.901
8/25/2013,23:38,18.996
8/25/2013,23:53,18.996
8/26/2013,0:08,18.996
8/26/2013,0:23,18.996
8/26/2013,0:38,18.996
8/26/2013,0:53,18.901
8/26/2013,1:08,18.901
8/26/2013,1:23,18.806
8/26/2013,1:38,18.616
8/26/2013,1:53,18.331
8/26/2013,2:08,18.14
8/26/2013,2:23,17.665
8/26/2013,2:38,17.379
8/26/2013,2:53,16.999
8/26/2013,3:08,16.618
8/26/2013,3:23,16.332
8/26/2013,3:38,16.141
8/26/2013,3:53,16.046
8/26/2013,4:08,15.855
8/26/2013,4:23,15.76
8/26/2013,4:38,15.76
8/26/2013,4:53,15.569
8/26/2013,5:08,15.378
8/26/2013,5:23,15.187
8/26/2013,5:38,15.091
8/26/2013,5:53,14.996
8/26/2013,6:08,14.804
8/26/2013,6:23,14.709
8/26/2013,6:38,16.618
8/26/2013,6:53,16.046
8/26/2013,7:08,16.523
8/26/2013,7:23,16.808
8/26/2013,7:38,16.903
8/26/2013,7:53,16.903
8/26/2013,8:08,16.713
8/26/2013,8:23,16.808
8/26/2013,8:38,16.903
8/26/2013,8:53,16.903
8/26/2013,9:08,16.808
8/26/2013,9:23,16.903
8/26/2013,9:38,16.903
8/26/2013,9:53,16.999
8/26/2013,10:08,17.189
8/26/2013,10:23,17.284
8/26/2013,10:38,17.284
8/26/2013,10:53,17.475
8/26/2013,11:08,17.57
8/26/2013,11:23,17.57
8/26/2013,11:38,17.665
8/26/2013,11:53,17.57
8/26/2013,12:08,17.665
8/26/2013,12:23,17.57
8/26/2013,12:38,17.855
8/26/2013,12:53,18.14
8/26/2013,13:08,18.236
8/26/2013,13:23,18.426
8/26/2013,13:38,18.711
8/26/2013,13:53,18.806
8/26/2013,14:08,18.996
8/26/2013,14:23,19.187
8/26/2013,14:38,19.472
8/26/2013,14:53,19.662
8/26/2013,15:08,20.329
8/26/2013,15:23,20.329
8/26/2013,15:38,20.043
8/26/2013,15:53,19.853
8/26/2013,16:08,19.853
8/26/2013,16:23,19.662
8/26/2013,16:38,20.043
8/26/2013,16:53,19.567
8/26/2013,17:08,19.567
8/26/2013,17:23,19.377
8/26/2013,17:38,19.187
8/26/2013,17:53,18.806
8/26/2013,18:08,18.711
8/26/2013,18:23,18.901
8/26/2013,18:38,18.901
8/26/2013,18:53,18.521
8/26/2013,19:08,18.426
8/26/2013,19:23,18.331
8/26/2013,19:38,18.14
8/26/2013,19:53,18.14
8/26/2013,20:08,18.045
8/26/2013,20:23,18.14
8/26/2013,20:38,18.045
8/26/2013,20:53,18.045
8/26/2013,21:08,18.14
8/26/2013,21:23,18.14
8/26/2013,21:38,18.045
8/26/2013,21:53,18.045
8/26/2013,22:08,17.95
8/26/2013,22:23,17.95
8/26/2013,22:38,18.045
8/26/2013,22:53,18.14
8/26/2013,23:08,18.236
8/26/2013,23:23,18.331
8/26/2013,23:38,18.331
8/26/2013,23:53,18.236
8/27/2013,0:08,18.236
8/27/2013,0:23,18.331
8/27/2013,0:38,18.331
8/27/2013,0:53,18.236
8/27/2013,1:08,18.236
8/27/2013,1:23,18.236
8/27/2013,1:38,18.045
8/27/2013,1:53,18.045
8/27/2013,2:08,17.855
8/27/2013,2:23,17.76
8/27/2013,2:38,17.57
8/27/2013,2:53,17.379
8/27/2013,3:08,17.094
8/27/2013,3:23,16.999
8/27/2013,3:38,16.808
8/27/2013,3:53,16.618
8/27/2013,4:08,16.523
8/27/2013,4:23,16.523
8/27/2013,4:38,16.427
8/27/2013,4:53,16.237
8/27/2013,5:08,16.141
8/27/2013,5:23,16.141
8/27/2013,5:38,16.141
8/27/2013,5:53,15.951
8/27/2013,6:08,15.951
8/27/2013,6:23,15.951
8/27/2013,6:38,15.951
8/27/2013,6:53,15.951
8/27/2013,7:08,15.951
8/27/2013,7:23,15.951
8/27/2013,7:38,16.999
8/27/2013,7:53,17.284
8/27/2013,8:08,17.379
8/27/2013,8:23,17.57
8/27/2013,8:38,17.57
8/27/2013,8:53,17.665
8/27/2013,9:08,17.76
8/27/2013,9:23,17.665
8/27/2013,9:38,17.665
8/27/2013,9:53,17.855
8/27/2013,10:08,17.95
8/27/2013,10:23,18.045
8/27/2013,10:38,18.045
8/27/2013,10:53,18.045
8/27/2013,11:08,18.236
8/27/2013,11:23,18.236
8/27/2013,11:38,18.426
8/27/2013,11:53,18.331
8/27/2013,12:08,18.521
8/27/2013,12:23,18.521
8/27/2013,12:38,18.616
8/27/2013,12:53,18.806
8/27/2013,13:08,18.996
8/27/2013,13:23,19.092
8/27/2013,13:38,19.092
8/27/2013,13:53,19.092
8/27/2013,14:08,19.187
8/27/2013,14:23,19.282
8/27/2013,14:38,19.377
8/27/2013,14:53,19.472
8/27/2013,15:08,19.567
8/27/2013,15:23,19.662
8/27/2013,15:38,19.853
8/27/2013,15:53,20.043
8/27/2013,16:08,20.138
8/27/2013,16:23,20.138
8/27/2013,16:38,20.234
8/27/2013,16:53,20.234
8/27/2013,17:08,20.329
8/27/2013,17:23,20.424
8/27/2013,17:38,20.329
8/27/2013,17:53,20.329
8/27/2013,18:08,20.424
8/27/2013,18:23,20.424
8/27/2013,18:38,19.758
8/27/2013,18:53,19.092
8/27/2013,19:08,18.996
8/27/2013,19:23,18.996
8/27/2013,19:38,19.092
8/27/2013,19:53,19.092
8/27/2013,20:08,18.806
8/27/2013,20:23,18.711
8/27/2013,20:38,18.616
8/27/2013,20:53,18.521
8/27/2013,21:08,18.521
8/27/2013,21:23,18.521
8/27/2013,21:38,18.521
8/27/2013,21:53,18.521
8/27/2013,22:08,18.426
8/27/2013,22:23,18.426
8/27/2013,22:38,18.426
8/27/2013,22:53,18.331
8/27/2013,23:08,18.426
8/27/2013,23:23,18.426
8/27/2013,23:38,18.426
8/27/2013,23:53,18.426
8/28/2013,0:08,18.426
8/28/2013,0:23,18.426
8/28/2013,0:38,18.521
8/28/2013,0:53,18.521
8/28/2013,1:08,18.901
8/28/2013,1:23,18.711
8/28/2013,1:38,18.711
8/28/2013,1:53,18.806
8/28/2013,2:08,19.187
8/28/2013,2:23,19.187
8/28/2013,2:38,19.092
8/28/2013,2:53,18.996
8/28/2013,3:08,18.901
8/28/2013,3:23,18.711
8/28/2013,3:38,18.521
8/28/2013,3:53,18.331
8/28/2013,4:08,18.14
8/28/2013,4:23,18.045
8/28/2013,4:38,17.95
8/28/2013,4:53,17.855
8/28/2013,5:08,17.665
8/28/2013,5:23,17.665
8/28/2013,5:38,17.57
8/28/2013,5:53,17.57
8/28/2013,6:08,17.665
8/28/2013,6:23,17.665
8/28/2013,6:38,17.665
8/28/2013,6:53,17.57
8/28/2013,7:08,17.57
8/28/2013,7:23,17.665
8/28/2013,7:38,17.665
8/28/2013,7:53,17.665
8/28/2013,8:08,17.76
8/28/2013,8:23,17.95
8/28/2013,8:38,18.236
8/28/2013,8:53,18.521
8/28/2013,9:08,18.521
8/28/2013,9:23,18.616
8/28/2013,9:38,18.616
8/28/2013,9:53,18.616
8/28/2013,10:08,18.711
8/28/2013,10:23,18.901
8/28/2013,10:38,19.092
8/28/2013,10:53,19.282
8/28/2013,11:08,19.187
8/28/2013,11:23,19.282
8/28/2013,11:38,19.282
8/28/2013,11:53,19.472
8/28/2013,12:08,19.472
8/28/2013,12:23,19.472
8/28/2013,12:38,19.472
8/28/2013,12:53,19.567
8/28/2013,13:08,19.567
8/28/2013,13:23,19.567
8/28/2013,13:38,19.662
8/28/2013,13:53,19.758
8/28/2013,14:08,20.043
8/28/2013,14:23,20.234
8/28/2013,14:38,20.329
8/28/2013,14:53,20.424
8/28/2013,15:08,20.424
8/28/2013,15:23,20.519
8/28/2013,15:38,20.519
8/28/2013,15:53,20.615
8/28/2013,16:08,20.615
8/28/2013,16:23,20.71
8/28/2013,16:38,20.71
8/28/2013,16:53,20.805
8/28/2013,17:08,20.805
8/28/2013,17:23,20.805
8/28/2013,17:38,20.901
8/28/2013,17:53,20.901
8/28/2013,18:08,20.901
8/28/2013,18:23,20.901
8/28/2013,18:38,20.805
8/28/2013,18:53,20.805
8/28/2013,19:08,20.805
8/28/2013,19:23,20.805
8/28/2013,19:38,20.805
8/28/2013,19:53,20.519
8/28/2013,20:08,19.948
8/28/2013,20:23,19.662
8/28/2013,20:38,19.662
8/28/2013,20:53,19.662
8/28/2013,21:08,19.662
8/28/2013,21:23,19.662
8/28/2013,21:38,19.472
8/28/2013,21:53,19.377
8/28/2013,22:08,19.187
8/28/2013,22:23,19.187
8/28/2013,22:38,19.092
8/28/2013,22:53,19.092
8/28/2013,23:08,19.092
8/28/2013,23:23,19.092
8/28/2013,23:38,19.092
8/28/2013,23:53,19.187
8/29/2013,0:08,19.092
8/29/2013,0:23,19.092
8/29/2013,0:38,19.187
8/29/2013,0:53,19.187
8/29/2013,1:08,19.187
8/29/2013,1:23,19.282
8/29/2013,1:38,19.377
8/29/2013,1:53,19.567
8/29/2013,2:08,19.662
8/29/2013,2:23,19.472
8/29/2013,2:38,19.472
8/29/2013,2:53,19.662
8/29/2013,3:08,19.567
8/29/2013,3:23,19.567
8/29/2013,3:38,19.567
8/29/2013,3:53,19.567
8/29/2013,4:08,19.567
8/29/2013,4:23,19.377
8/29/2013,4:38,19.092
8/29/2013,4:53,19.092
8/29/2013,5:08,18.806
8/29/2013,5:23,18.806
8/29/2013,5:38,18.806
8/29/2013,5:53,18.711
8/29/2013,6:08,18.711
8/29/2013,6:23,18.521
8/29/2013,6:38,18.616
8/29/2013,6:53,18.711
8/29/2013,7:08,18.616
8/29/2013,7:23,18.711
8/29/2013,7:38,18.806
8/29/2013,7:53,18.901
8/29/2013,8:08,19.092
8/29/2013,8:23,19.092
8/29/2013,8:38,18.901
8/29/2013,8:53,18.901
8/29/2013,9:08,18.996
8/29/2013,9:23,19.187
8/29/2013,9:38,19.567
8/29/2013,9:53,19.948
8/29/2013,10:08,19.662
8/29/2013,10:23,19.567
8/29/2013,10:38,19.567
8/29/2013,10:53,19.472
8/29/2013,11:08,19.472
8/29/2013,11:23,19.662
8/29/2013,11:38,19.662
8/29/2013,11:53,19.662
8/29/2013,12:08,19.567
8/29/2013,12:23,19.472
8/29/2013,12:38,19.472
8/29/2013,12:53,19.472
8/29/2013,13:08,19.472
8/29/2013,13:23,19.567
8/29/2013,13:38,19.662
8/29/2013,13:53,19.758
8/29/2013,14:08,19.853
8/29/2013,14:23,19.853
8/29/2013,14:38,20.043
8/29/2013,14:53,20.234
8/29/2013,15:08,20.329
8/29/2013,15:23,20.424
8/29/2013,15:38,20.519
8/29/2013,15:53,20.519
8/29/2013,16:08,20.424
8/29/2013,16:23,20.234
8/29/2013,16:38,20.234
8/29/2013,16:53,20.329
8/29/2013,17:08,20.424
8/29/2013,17:23,20.615
8/29/2013,17:38,20.519
8/29/2013,17:53,20.424
8/29/2013,18:08,20.424
8/29/2013,18:23,20.519
8/29/2013,18:38,20.424
8/29/2013,18:53,20.519
8/29/2013,19:08,20.615
8/29/2013,19:23,20.424
8/29/2013,19:38,20.424
8/29/2013,19:53,20.329
8/29/2013,20:08,20.329
8/29/2013,20:23,20.138
8/29/2013,20:38,20.138
8/29/2013,20:53,20.043
8/29/2013,21:08,19.948
8/29/2013,21:23,19.853
8/29/2013,21:38,19.758
8/29/2013,21:53,19.662
8/29/2013,22:08,19.662
8/29/2013,22:23,19.758
8/29/2013,22:38,19.758
8/29/2013,22:53,19.662
8/29/2013,23:08,19.662
8/29/2013,23:23,19.567
8/29/2013,23:38,19.567
8/29/2013,23:53,19.472
8/30/2013,0:08,19.472
8/30/2013,0:23,19.472
8/30/2013,0:38,19.472
8/30/2013,0:53,19.472
8/30/2013,1:08,19.472
8/30/2013,1:23,19.472
8/30/2013,1:38,19.567
8/30/2013,1:53,19.472
8/30/2013,2:08,19.472
8/30/2013,2:23,19.472
8/30/2013,2:38,19.377
8/30/2013,2:53,19.282
8/30/2013,3:08,19.282
8/30/2013,3:23,19.282
8/30/2013,3:38,19.187
8/30/2013,3:53,19.092
8/30/2013,4:08,19.092
8/30/2013,4:23,18.996
8/30/2013,4:38,18.616
8/30/2013,4:53,18.521
8/30/2013,5:08,18.331
8/30/2013,5:23,18.045
8/30/2013,5:38,17.855
8/30/2013,5:53,17.475
8/30/2013,6:08,17.189
8/30/2013,6:23,16.999
8/30/2013,6:38,16.903
8/30/2013,6:53,16.713
8/30/2013,7:08,16.808
8/30/2013,7:23,16.713
8/30/2013,7:38,16.713
8/30/2013,7:53,17.094
8/30/2013,8:08,17.284
8/30/2013,8:23,17.475
8/30/2013,8:38,17.95
8/30/2013,8:53,18.616
8/30/2013,9:08,19.187
8/30/2013,9:23,19.472
8/30/2013,9:38,20.138
8/30/2013,9:53,20.901
8/30/2013,10:08,21.664
8/30/2013,10:23,21.855
8/30/2013,10:38,21.76
8/30/2013,10:53,22.429
8/30/2013,11:08,20.519
8/30/2013,11:23,20.138
8/30/2013,11:38,20.805
8/30/2013,11:53,20.234
8/30/2013,12:08,20.043
8/30/2013,12:23,20.043
8/30/2013,12:38,20.043
8/30/2013,12:53,20.043
8/30/2013,13:08,20.519
8/30/2013,13:23,20.234
8/30/2013,13:38,20.138
8/30/2013,13:53,19.853
8/30/2013,14:08,19.758
8/30/2013,14:23,19.758
8/30/2013,14:38,19.758
8/30/2013,14:53,19.853
8/30/2013,15:08,19.853
8/30/2013,15:23,19.853
8/30/2013,15:38,19.853
8/30/2013,15:53,19.853
8/30/2013,16:08,20.043
8/30/2013,16:23,20.138
8/30/2013,16:38,20.138
8/30/2013,16:53,20.138
8/30/2013,17:08,20.234
8/30/2013,17:23,20.234
8/30/2013,17:38,20.234
8/30/2013,17:53,20.329
8/30/2013,18:08,20.329
8/30/2013,18:23,20.329
8/30/2013,18:38,20.424
8/30/2013,18:53,20.424
8/30/2013,19:08,20.424
8/30/2013,19:23,20.329
8/30/2013,19:38,20.329
8/30/2013,19:53,20.329
8/30/2013,20:08,20.329
8/30/2013,20:23,20.329
8/30/2013,20:38,20.329
8/30/2013,20:53,20.329
8/30/2013,21:08,20.329
8/30/2013,21:23,20.329
8/30/2013,21:38,20.329
8/30/2013,21:53,20.329
8/30/2013,22:08,20.329
8/30/2013,22:23,20.329
8/30/2013,22:38,20.329
8/30/2013,22:53,19.662
8/30/2013,23:08,19.377
8/30/2013,23:23,19.187
8/30/2013,23:38,19.092
8/30/2013,23:53,19.092
8/31/2013,0:08,19.092
8/31/2013,0:23,18.996
8/31/2013,0:38,18.901
8/31/2013,0:53,18.806
8/31/2013,1:08,18.711
8/31/2013,1:23,18.711
8/31/2013,1:38,18.616
8/31/2013,1:53,18.521
8/31/2013,2:08,18.521
8/31/2013,2:23,18.521
8/31/2013,2:38,18.521
8/31/2013,2:53,18.521
8/31/2013,3:08,18.521
8/31/2013,3:23,18.521
8/31/2013,3:38,18.711
8/31/2013,3:53,18.901
8/31/2013,4:08,19.092
8/31/2013,4:23,19.092
8/31/2013,4:38,19.092
8/31/2013,4:53,18.996
8/31/2013,5:08,18.806
8/31/2013,5:23,18.616
8/31/2013,5:38,18.236
8/31/2013,5:53,18.045
8/31/2013,6:08,17.76
8/31/2013,6:23,17.379
8/31/2013,6:38,17.189
8/31/2013,6:53,16.808
8/31/2013,7:08,16.618
8/31/2013,7:23,16.618
8/31/2013,7:38,16.618
8/31/2013,7:53,16.618
8/31/2013,8:08,16.903
8/31/2013,8:23,17.189
8/31/2013,8:38,17.76
8/31/2013,8:53,18.14
8/31/2013,9:08,18.806
8/31/2013,9:23,19.282
8/31/2013,9:38,19.948
8/31/2013,9:53,20.424
8/31/2013,10:08,21.187
8/31/2013,10:23,21.76
8/31/2013,10:38,22.238
8/31/2013,10:53,22.908
8/31/2013,11:08,23.388
8/31/2013,11:23,24.158
8/31/2013,11:38,24.738
8/31/2013,11:53,22.812
8/31/2013,12:08,20.138
8/31/2013,12:23,20.901
8/31/2013,12:38,19.092
8/31/2013,12:53,18.616
8/31/2013,13:08,18.711
8/31/2013,13:23,18.901
8/31/2013,13:38,18.996
8/31/2013,13:53,19.187
8/31/2013,14:08,19.092
8/31/2013,14:23,18.996
8/31/2013,14:38,18.426
8/31/2013,14:53,18.236
8/31/2013,15:08,18.331
8/31/2013,15:23,18.331
8/31/2013,15:38,18.426
8/31/2013,15:53,18.331
8/31/2013,16:08,18.426
8/31/2013,16:23,18.521
8/31/2013,16:38,18.711
8/31/2013,16:53,18.806
8/31/2013,17:08,18.901
8/31/2013,17:23,18.996
8/31/2013,17:38,18.996
8/31/2013,17:53,18.996
8/31/2013,18:08,18.996
8/31/2013,18:23,18.901
8/31/2013,18:38,18.996
8/31/2013,18:53,18.996
8/31/2013,19:08,18.996
8/31/2013,19:23,19.092
8/31/2013,19:38,19.377
8/31/2013,19:53,19.472
8/31/2013,20:08,19.662
8/31/2013,20:23,19.377
8/31/2013,20:38,19.187
8/31/2013,20:53,19.092
8/31/2013,21:08,19.092
8/31/2013,21:23,18.996
8/31/2013,21:38,19.092
8/31/2013,21:53,19.282
8/31/2013,22:08,19.377
8/31/2013,22:23,19.472
8/31/2013,22:38,19.472
8/31/2013,22:53,19.377
8/31/2013,23:08,19.472
8/31/2013,23:23,18.711
8/31/2013,23:38,17.379
8/31/2013,23:53,16.618
9/1/2013,0:08,16.237
9/1/2013,0:23,16.046
9/1/2013,0:38,16.046
9/1/2013,0:53,16.141
9/1/2013,1:08,15.76
9/1/2013,1:23,15.473
9/1/2013,1:38,15.378
9/1/2013,1:53,15.378
9/1/2013,2:08,15.378
9/1/2013,2:23,15.473
9/1/2013,2:38,15.569
9/1/2013,2:53,15.569
9/1/2013,3:08,15.664
9/1/2013,3:23,15.569
9/1/2013,3:38,15.569
9/1/2013,3:53,15.664
9/1/2013,4:08,15.76
9/1/2013,4:23,15.76
9/1/2013,4:38,15.76
9/1/2013,4:53,16.237
9/1/2013,5:08,16.332
9/1/2013,5:23,16.332
9/1/2013,5:38,16.618
9/1/2013,5:53,16.427
9/1/2013,6:08,16.332
9/1/2013,6:23,16.427
9/1/2013,6:38,16.523
9/1/2013,6:53,16.523
9/1/2013,7:08,16.427
9/1/2013,7:23,16.237
9/1/2013,7:38,16.332
9/1/2013,7:53,16.427
9/1/2013,8:08,16.427